Location: Unspecified
(0.0000°N, 0.0000°E)
Time: 16:57:05
(UTC+00:00)

N. Korean satellite - Pass Details

Date: 11 November 2017
Orbit: 460 x 514 km, 97.2° (Epoch: 22 November)

Event Time Altitude Azimuth Distance (km) Brightness Sun altitude
Rises 18:28:44 0° 172° (S) 2,498 10.3 -10.6°
Reaches altitude 10° 18:30:48 10° 174° (S) 1,614 9.4 -11.1°
Maximum altitude 18:34:14 75° 258° (WSW) 481 6.7 -11.9°
Drops below altitude 10° 18:37:39 10° 345° (NNW) 1,597 9.2 -12.7°
Sets 18:39:41 0° 346° (NNW) 2,468 10.1 -13.2°
